Location: Roc des P�zouls
(43.9667°N, 3.5500°E)
Time: 02:49:51
(UTC+00:00)

Cosmos 1151 Rocket - Pass Details

Date: 14 November 2019
Orbit: 592 x 616 km, 82.5° (Epoch: 12 December)

Event Time Altitude Azimuth Distance (km) Brightness Sun altitude
Rises 05:22:17 0° 353° (N) 2,896 6.3 -13.9°
Reaches altitude 10° 05:24:32 10° 356° (N) 1,984 5.5 -13.5°
Maximum altitude 05:28:55 70° 80° (E) 655 3.4 -12.7°
Drops below altitude 10° 05:33:14 10° 165° (SSE) 1,958 6.0 -12.0°
Sets 05:35:27 0° 167° (SSE) 2,854 6.8 -11.6°
